Regional Weather Roundup
Issued by NWS Kansas City/Pleasant Hill, MO

Home | Current Version | Previous Version | Graphics & Text | Print | Product List | Glossary Off
Versions: 1 2 3 4 5 6 7 8 9 10 11 12 13 14 15 16 17 18 19 20 21 22 23 24 25 26 27 28 29 30 31 32 33 34 35 36 37 38 39 40 41 42 43 44 45 46 47 48 49 50

120
ASUS43 KEAX 142110
RWREAX

WEATHER ROUNDUP FOR EASTERN KANSAS AND NORTHWEST MISSOURI
NATIONAL WEATHER SERVICE KANSAS CITY/PLEASANT HILL MO
300 PM CST SUN FEB 14 2016

KSZ040-057-103>105-MOZ028-029-037-043-142200-
...KANSAS CITY METROPOLITAN AREA...

CITY           SKY/WX    TMP DP  RH WIND       PRES   REMARKS
K.C. INTL      PTSUNNY   49  28  44 W12       29.84F
K.C. DOWNTOWN  SUNNY     50  27  40 W10       29.84F
LEES SUMMIT    CLOUDY    48  28  46 SW10      29.84F
OLATHE - IXD   SUNNY     48  29  47 SW8       29.86F
OLATHE - OJC   SUNNY     48  29  47 SW10      29.85F
LAWRENCE       SUNNY     51  28  41 S6        29.85F

$$

MOZ001>008-011>017-020>025-030>033-038>040-044>046-053-054-142200-
...NORTHERN AND CENTRAL MISSOURI...

CITY           SKY/WX    TMP DP  RH WIND       PRES   REMARKS
ST. JOSEPH     PTSUNNY   48  28  46 W14       29.84S
MOSBY          PTCLDY    46  27  46 W9        29.84F
WARRENSBURG    SUNNY     45  32  61 SW7       29.86F
WHITEMAN AFB   CLOUDY    44  33  65 SW12      29.85F
CLINTON          N/A     46  32  57 S8        29.88F
SEDALIA        CLOUDY    37  30  75 S8        29.90F WCI  31
WARSAW         NOT AVBL
CHILLICOTHE      N/A     42  25  50 S6        29.84F
KIRKSVILLE     CLOUDY    27  21  78 SE6       29.89R WCI  20

$$

MOZ041-047>049-056>058-063>065-088>090-097-142200-
...EASTERN AND SOUTHERN MISSOURI...

CITY           SKY/WX    TMP DP  RH WIND       PRES   REMARKS
ST. LOUIS INTL CLOUDY    27  21  80 SE12      29.98F WCI  16
SPIRIT OF STL  CLOUDY    27  22  81 SE5       29.97F WCI  22
COLUMBIA       CLOUDY    32  27  81 S10       29.90F WCI  24
JEFFERSON CITY CLOUDY    32  27  81 S7        29.93F WCI  26
ROLLA          CLOUDY    30  27  88 S8        29.90F WCI  22
OSAGE BEACH    CLOUDY    32  27  80 CALM      29.91F
SPRINGFIELD    CLOUDY    36  28  73 S10       29.89F WCI  28
BRANSON        CLOUDY    32  27  80 SE5       29.93F WCI  27
JOPLIN         SUNNY     53  37  54 SW9       29.88F
WEST PLAINS    CLOUDY    28  24  85 S7        29.95F FOG     WCI  21

$$

IAZ060-094-KSZ022-034>040-054-083-096-NEZ052-066-093-142200-
...KANSAS...SOUTHEAST NEBRASKA AND IOWA...

CITY           SKY/WX    TMP DP  RH WIND       PRES   REMARKS
TOPEKA         SUNNY     53  29  39 W7        29.85F
MANHATTAN      SUNNY     56  28  34 NW9G18    29.85F
EMPORIA        SUNNY     55  30  38 NW8       29.84F
CHANUTE        CLOUDY    54  29  38 W10       29.87F
WICHITA        CLOUDY    54  27  35 CALM      29.88F
OMAHA          CLOUDY    36  27  69 W12       29.83R WCI  28
LINCOLN        MOSUNNY   41  32  70 N7        29.85S
FALLS CITY     CLOUDY    47  30  51 NW12      29.83S
LAMONI         CLOUDY    35  23  61 SW10      29.82S WCI  27
DES MOINES     CLOUDY    24  17  74 SE10      29.86F WCI  14

$$





USA.gov is the U.S. government's official web portal to all federal, state and local government web resources and services.